Location: Wroclaw
(51.1000°N, 17.0330°E)
Time: 04:36:26
(UTC+01:00)

BlueWalker 3 - Visible Passes

Search period start: 24 February 2024 00:00
Search period end: 05 March 2024 00:00
Orbit: 486 x 500 km, 53.2° (Epoch: 23 February)

Date Brightness Start Highest point End Pass type
(mag) Time Alt. Az. Time Alt. Az. Time Alt. Az.
24 Feb 2.0 18:07:58 10° W 18:11:45 75° NNW 18:15:18 12° ENE visible
24 Feb 2.4 19:46:31 10° WNW 19:49:46 56° NW 19:49:46 56° NW visible
25 Feb 2.0 19:22:41 10° WNW 19:26:28 64° N 19:26:57 56° NE visible
25 Feb 5.1 21:01:04 10° WNW 21:01:26 12° WNW 21:01:26 12° WNW visible
26 Feb 2.0 18:58:52 10° WNW 19:02:37 63° N 19:04:07 33° ENE visible
26 Feb 4.4 20:37:14 10° WNW 20:38:36 21° WNW 20:38:36 21° WNW visible
27 Feb 2.1 18:35:01 10° WNW 18:38:47 63° N 18:41:16 20° E visible
27 Feb 3.4 20:13:22 10° WNW 20:15:45 35° W 20:15:45 35° W visible
28 Feb 2.1 18:11:07 10° WNW 18:14:53 63° N 18:18:26 11° E visible
28 Feb 2.2 19:49:30 10° WNW 19:52:55 61° WSW 19:52:55 61° WSW visible
29 Feb 2.0 19:25:36 10° WNW 19:29:21 66° SSW 19:30:06 51° SSE visible
01 Mar 2.0 19:01:40 10° WNW 19:05:26 68° SSW 19:07:19 27° SE visible
01 Mar 4.6 20:40:38 10° W 20:41:48 15° WSW 20:41:48 15° WSW visible
02 Mar 2.1 18:37:43 10° WNW 18:41:30 69° SSW 18:44:34 15° ESE visible
02 Mar 4.2 20:16:39 10° W 20:19:03 18° SW 20:19:03 18° SW visible
03 Mar 2.1 18:13:46 10° WNW 18:17:32 71° SSW 18:21:18 10° ESE visible
03 Mar 4.0 19:52:39 10° W 19:55:20 19° SW 19:56:23 17° SSW visible
04 Mar 4.2 19:28:38 10° W 19:31:22 19° SW 19:33:47 11° S visible
